Regional Weather Roundup
Issued by NWS Grand Forks, ND

Home | Current Version | Previous Version | Graphics & Text | Print | Product List | Glossary On
Versions: 1 2 3 4 5 6 7 8 9 10 11 12 13 14 15 16 17 18 19 20 21 22 23 24 25 26 27 28 29 30 31 32 33 34 35 36 37 38 39 40 41 42 43 44 45 46 47 48 49 50
000
ASUS43 KFGF 291510
RWRFGF
PRAIRIE TO PINES  WEATHER ROUNDUP
NATIONAL WEATHER SERVICE EASTERN NORTH DAKOTA/GRAND FORKS ND
1000 AM CDT FRI APR 29 2016

 **SATELLITE DATA USED TO AUGMENT SKY COVER AT AUTOMATED STATIONS**
 *****  WEATHER ACROSS EASTERN NORTH DAKOTA  *****

CITY           SKY/WX    TMP DP  RH WIND       PRES   REMARKS
GRAND FORKS    PTSUNNY   50  33  52 NE8       30.23R
GRAND FRKS AFB MOSUNNY   48  31  52 NE7       30.23R
DEVILS LAKE    MOSUNNY   49  31  49 E10       30.23R
FARGO          SUNNY     51  38  60 VRB3      30.19S
WAHPETON ARPT  SUNNY     50  36  57 W12       30.20S
$$

 ***** WEATHER ACROSS CENTRAL AND WESTERN NORTH DAKOTA  *****

CITY           SKY/WX    TMP DP  RH WIND       PRES   REMARKS
BISMARCK       CLOUDY    47  32  56 E7        30.20S
MINOT          SUNNY     50  21  32 VRB5      30.21S
JAMESTOWN      SUNNY     50  32  50 NE7       30.19R
MINOT AFB      SUNNY     46  22  38 E6        30.21R
GARRISON         N/A     50  27  40 E8        30.19S
WILLISTON      SUNNY     50  27  40 VRB7      30.18R
DICKINSON      CLOUDY    44  29  55 E12       30.15R
HETTINGER      CLOUDY    43  36  76 CALM      30.16R
$$

 *****  OTHER AIRPORT OBSERVATIONS IN OUR AREA  *****

CITY           SKY/WX    TMP DP  RH WIND       PRES   REMARKS
WALHALLA       FAIR      46  28  49 N3        30.26R
GRAFTON AIRPOR FAIR      48  32  53 CALM      30.26S
VALLEY CITY AR FAIR      48  32  53 NE8       30.21S
CANDO          FAIR      50  25  37 E6        30.25F
CAVALIER APRT  FAIR      46  32  57 N5        30.25S
GWINNER        FAIR      48  41  76 W9        30.19F
SHEYENNE NWR     N/A     48  37  65 NW2       29.95S
ROLLA          FAIR      46  19  34 CALM      30.25S
 ***** THE ABOVE OBSERVATIONS ARE NON NWS ARE NOT QUALITY
       CONTROLLED AND MAY MIS-REPORT RAIN FOR SNOW...
$$

  *****  WEATHER ACROSS NORTHERN MINNESOTA  *****

CITY           SKY/WX    TMP DP  RH WIND       PRES   REMARKS
FLAG ISLAND    SUNNY     43  32  65 N8        30.24S
WARROAD        SUNNY     43  36  75 NE9       30.25S
ROSEAU         SUNNY     48  37  66 E9        30.24S
HALLOCK        SUNNY     54  28  37 E9        30.23S
THF RVR FALLS  CLOUDY    50  28  43 E9        30.23R
BAUDETTE       MOSUNNY   50  30  46 NE10      30.22R
WASKISH        SUNNY     50  32  50 N9G17     30.21R
CROOKSTON      CLOUDY    52  30  43 E13       30.23S
GREENBUSH NDAW   N/A     50  36  57 NE8         N/A
$$
  *****  WEATHER ACROSS CENTRAL AND WEST MINNESOTA  *****

CITY           SKY/WX    TMP DP  RH WIND       PRES   REMARKS
FOSSTON        MOSUNNY   48  32  53 NE10      30.21S
BEMIDJI        SUNNY     48  31  52 N9        30.19S
PARK RAPIDS    SUNNY     50  33  52 CALM      30.18S
ELBOW LAKE     FAIR      46  38  74 W5        30.21S
WADENA         SUNNY     46  37  71 W6        30.19S
DETROIT LAKES  SUNNY     48  37  66 CALM      30.19F
MOORHEAD       SUNNY     46  37  71 CALM      30.20S
FERGUS FALLS   SUNNY     48  39  71 W7        30.19S
MORRIS MN      SUNNY     48  39  71 N6        30.18F
STAPLES        SUNNY     46  36  66 NW3       30.19S
$$
  *****  WEATHER ELSEWHERE ACROSS MINNESOTA  *****

CITY           SKY/WX    TMP DP  RH WIND       PRES   REMARKS
DULUTH         SUNNY     47  28  47 SE8       30.18S
INTRNTL FALLS  SUNNY     47  30  51 E13       30.22R
ELY            CLOUDY    43  30  61 N5        30.20S
CLOQUET        CLOUDY    46  25  42 E7        30.18S
WHEATON        PTSUNNY   52  41  66 NW5       30.21F
BRAINERD         N/A    N/A N/A N/A MISG      30.19S
HIBBING        SUNNY     46  26  45 MISG      30.19R
ALEXANDRIA     MOSUNNY   47  37  68 W9        30.21R
SAINT CLOUD    SUNNY     46  34  62 CALM      30.20S
MINNEAPOLIS    MOSUNNY   47  37  68 N12       30.18F
$$

  *****  WEATHER ACROSS SOUTH DAKOTA  *****

CITY           SKY/WX    TMP DP  RH WIND       PRES   REMARKS
SIOUX FALLS    CLOUDY    42  36  79 NE17      30.11F
BROOKINGS        N/A     41  37  86 MISG      30.13F
WATERTOWN      PTSUNNY   47  38  71 NE7       30.15S
HURON          PTSUNNY   45  38  76 NE10      30.15S
SISSETON         N/A     50  37  61 N7        30.16F
ABERDEEN       CLOUDY    48  38  68 VRB3      30.17F
MITCHELL       CLOUDY    42  38  85 NE13      30.14F
PIERRE         MOSUNNY   46  37  71 E9        30.12F
MOBRIDGE       CLOUDY    51  42  71 N6        30.12F
RAPID CITY     CLOUDY    38  35  89 E6        30.10S
$$

  *****  SOME WEATHER IN NEARBY STATES *****

CITY           SKY/WX    TMP DP  RH WIND       PRES   REMARKS
GLASGOW MT     CLOUDY    47  36  65 E9        30.11S
GREAT FALLS MT CLOUDY    39  35  86 SW5       29.97S
CHEYENNE WY    FOG       32  31  96 E7        29.96F VSB<1/4
SCOTTSBLUFF NE CLOUDY    40  35  83 NE9       30.03S
OMAHA NE       CLOUDY    47  39  74 E9        30.12R
DES MOINES IA  CLOUDY    47  40  76 E8        30.12R
DAVENPORT IA   CLOUDY    45  40  82 NE14      30.10R
CHICAGO IL     CLOUDY    45  39  79 NE5       30.10R
EAU CLAIRE WI  PTSUNNY   47  37  68 CALM      30.16F
LA CROSSE WI   CLOUDY    47  37  68 N9        30.13F
$$

  *****  SOME NATIONAL WEATHER *****

CITY           SKY/WX    TMP DP  RH WIND       PRES   REMARKS
LA GUARDIA NY  CLOUDY    54  26  34 E15       30.12S
RALEIGH NC     MOSUNNY   67  61  81 VRB3      30.00F
ATLANTA GA     MOSUNNY   79  52  38 CALM      30.04R
NEW ORLEANS LA MOSUNNY   80  72  76 S14       29.94R
OKLAHOMA CITY  CLOUDY    60  58  92 E15       29.77F
ALBUQUERQUE NM MOSUNNY   46  39  76 S5        29.87R
SALT LAKE CITY PTSUNNY   48  33  56 NW8       29.88R
LOS ANGELES CA PTSUNNY   60  49  66 VRB3      30.02R
BOISE ID       MOSUNNY   51  39  63 W7        29.91R
SEATTLE WA     CLOUDY    49  42  77 S3        30.10R
$$

*** WEATHER ACROSS MANITOBA...SASKATCHEWAN AND ONTARIO ***
                ***ONTARIO***

CITY           SKY/WX    TMP DP  RH WIND       PRES   REMARKS
GERALDTON      CLOUDY    39  28  65 NE5       30.23R
THUNDER BAY    PTSUNNY   45  30  57 NE3       30.21S
SIOUX LOOKOUT  PTSUNNY   43  32  65 VRB2      30.25S
TORONTO        PTSUNNY   46  21  36 NE9       30.09S
BIG TROUT LK   CLOUDY    36  27  69 N9        30.33S
PICKLE LAKE    CLOUDY    37  28  70 NW3       30.27S
DRYDEN         CLOUDY    46  32  57 E13       30.23F
KENORA         MOSUNNY   46  30  53 E12       30.24F
$$
                *** MANITOBA***

CITY           SKY/WX    TMP DP  RH WIND       PRES   REMARKS
BRANDON        MOSUNNY   52  16  24 E10       30.26S
DAUPHIN        SUNNY     46  19  34 N5        30.30R
ISLAND LAKE    MOSUNNY   41  19  42 N5        30.37F
PILOT MOUND      N/A     52  23  32 NE8         N/A
THE PAS        PTSUNNY   50  19  29 S12       30.31S
THOMPSON       CLOUDY    43  18  36 S5        30.33F
WINNIPEG       MOSUNNY   50  28  43 E5        30.26S
LYNN LAKE      CLOUDY    48  25  40 SW7       30.22S
CHURCHILL      MOSUNNY   25  23  93 E7        30.47S WCI  17
GILLAM         MOSUNNY   30  21  69 S6        30.41F WCI  24
$$
                ***SASKATCHEWAN***

CITY           SKY/WX    TMP DP  RH WIND       PRES   REMARKS
ESTEVAN        PTSUNNY   50  18  27 E13       30.21R
KINDERSLEY     PTSUNNY   50  30  46 SE14      30.08S
LLOYDMINSTER   PTSUNNY   48  28  46 SE10      30.07S
PRINCE ALBERT  MOSUNNY   50  28  43 SE6       30.20S
REGINA         MOSUNNY   50  16  25 SE15      30.20S
YORKTON        SUNNY     48  19  32 SE7       30.26F
N. BATTLEFORD  SUNNY     52  27  37 SE10      30.14S
LA RONGE       MOSUNNY   46  25  42 SE6       30.21S
SASKATOON      SUNNY     52  23  32 SE12      30.18S
SWIFT CURRENT  SUNNY     50  27  40 SE14      30.09F
$$
NOTE: THESE ARE AUTOMATED STATIONS WITH LIMITED QUALITY CONTROL
      "FAIR" INDICATES FEW OR NO CLOUDS BELOW 12,000 FEET WITH NO
      SIGNIFICANT WEATHER AND/OR OBSTRUCTIONS TO VISIBILITY.
      SKY/WX - SKY CONDITION AND SIGNIFICANT WEATHER.
      TMP - AIR TEMPERATURE.    DP   - DEWPOINT TEMPERATURE.
      RH  - RELATIVE HUMIDITY.  PRES - PRESSURE.
      HX  - HEAT INDEX.         WCI  - WIND CHILL INDEX.
$




USA.gov is the U.S. government's official web portal to all federal, state and local government web resources and services.